Weather in Khakhaly

Russia / Nizhny Novgorod Oblast'     56°39′12″N   44°40′34″E
temp.,
°C
wind,
m/s
gust,
m/s
humid.,
%
clouds,
%
prec.,
mm/h
press.,
hPa
HPBL,
m
13 may, thu
thu1300:00+18sse4126617 0.0 1023439
03:00+14e23736 0.0 102345
06:00+15ese387833 0.3 1023247
09:00+20ese485999 0.4 1022668
12:00+24se51046100 0.0 10211613
15:00+20ese5125770 0.0 1019668
18:00+18ese41373100 0.3 1018772
21:00+17se4128582 1.3 1017459
14 may, fri
fri1400:00+14se379818 2.7 1018176
03:00+13ssw239819 2.7 101959
06:00+15sw2393100 0.0 1019133
09:00+18sw2375100 0.0 1020538
12:00+22ssw245397 0.0 10201374
15:00+24ssw23445 0.0 10191812
18:00+22sse2461100 0.0 1018137
21:00+17ese1176100 0.0 101811
15 may, sat
sat1500:00+16ese2688100 0.0 1017107
03:00+16se3996100 1.1 1016205
06:00+17se2892100 1.5 1015221
09:00+22sse3669100 1.5 1015477
12:00+25s6104660 0.0 10141020
15:00+26s61247100 0.0 10131265
18:00+23s511530 0.0 10121069
21:00+17s24795 0.0 101372
16 may, sun
sun1600:00+16s3118819 0.0 1012256
03:00+14ssw28935 0.0 1012187
06:00+17sw3108320 0.0 1013405
09:00+20sw5957100 0.0 1014949
12:00+22sw5849100 0.0 10141499
15:00+23wsw58475 0.0 10141735
18:00+21wsw47580 0.0 1013874
21:00+15sw28800 0.0 1014157
17 may, mon
mon1700:00+14sw310890 0.0 1014230
03:00+12sw25955 0.0 1015100
06:00+15sw36820 0.0 1016228
09:00+20wsw35600 0.0 1016825
12:00+24wsw354798 0.0 10161492
15:00+25wsw3444100 0.0 10161662
18:00+23w1258100 0.0 101791
21:00+17e117399 0.0 101711